Miscellaneous Local Product
Issued by NWS North Platte, NE

Home | Current Version | Previous Version | Text Only | Print | Product List | Glossary On
Versions: 1 2 3 4 5 6 7 8 9 10 11 12 13 14 15 16 17 18 19 20 21 22 23 24 25 26 27 28 29 30 31 32 33 34 35 36 37 38 39 40 41 42 43 44 45 46 47 48 49 50
000
AXUS43 KLBF 231110
MISLBF


WESTERN AND NORTH CENTRAL NEBRASKA HOURLY WEATHER ROUNDUP
NATIONAL WEATHER SERVICE NORTH PLATTE NE
500 AM CST THU FEB 23 2017

NOTE: "FAIR" INDICATES FEW OR NO CLOUDS BELOW 12,000 FEET WITH NO
SIGNIFICANT WEATHER AND/OR OBSTRUCTIONS TO VISIBILITY.

NOTE: STATIONS NOT REPORTING VARIABLES SUCH AS SKY/WEATHER OR
PRESSURE ARE PROVIDED BY RAWS AND APRS NETWORKS AND ARE NOT UNDER
NATIONAL WEATHER SERVICE QUALITY CONTROL.

...OBSERVATIONS IN AND NEAR THE EASTERN PANHANDLE OF NEBRASKA...

CITY           SKY/WX    TMP DP  RH WIND       PRES   REMARKS
PINE RIDGE     LGT SNOW  30  28  92 NE10      29.79F FOG     WCI  21
CHADRON        LGT SNOW  30  28  92 NE12      29.80F VSB 3/4 WCI  20
ALLIANCE       LGT SNOW  29  27  92 NE10      29.73S FOG     WCI  20
SIDNEY         CLOUDY    31  28  89 E20       29.68F WCI  19
CRESCENT LAKE    N/A     29  28  95 NE14G22     N/A  WCI  18
$$

...OBSERVATIONS IN NORTHERN NEBRASKA AND FAR SOUTHERN SOUTH DAKOTA...

CITY           SKY/WX    TMP DP  RH WIND       PRES   REMARKS
WINNER         CLOUDY    31  27  85 N16       29.90R WCI  20
VALENTINE      LGT SNOW  28  25  88 NE14G23   29.85R FOG     WCI  17
THEDFORD       CLOUDY    32  31  98 NE12      29.81R FOG     WCI  23
AINSWORTH      FLURRIES  29  29 100 NE17      29.84R WCI  17
O`NEILL        CLOUDY    31  30  96 N14G21    29.84S WCI  21
ORD            CLOUDY    32  29  88 NE14      29.82R FOG     WCI  22
BROKEN BOW     CLOUDY    34  32  92 NE14      29.78S WCI  25
VALENTINE NWR    N/A     29  29  98 NE9G20      N/A  WCI  21
BUTTE            N/A     29  26  89 N13G22      N/A  WCI  19
HALSEY           N/A     31  30  96 N9G16       N/A  WCI  23
CHAMBERS         N/A     30  29  95 W7          N/A  WCI  23
EWING            N/A     31  30  95 NE7         N/A  WCI  24
$$

...OBSERVATIONS IN SOUTHWEST NEBRASKA AND FAR NORTHEAST COLORADO...

CITY           SKY/WX    TMP DP  RH WIND       PRES   REMARKS
HOLYOKE        CLOUDY    34  30  86 NE18      29.68F WCI  23
IMPERIAL       CLOUDY    33  30  88 NE22      29.70F WCI  21
OGALLALA       CLOUDY    34  31  89 E21       29.73S WCI  22
NORTH PLATTE   CLOUDY    35  32  88 NE16      29.75F WCI  25
MCCOOK         CLOUDY    39  36  89 NE21G31   29.69F WCI  29
LEXINGTON      CLOUDY    37  34  87 NE18G26   29.75S WCI  27
STAPLETON        N/A     32  32 100 E10G17      N/A  WCI  24
GOTHENBURG       N/A     37  33  84 NE13        N/A  WCI  29
CALLAWAY         N/A     33  31  94 NE15        N/A  WCI  23
$$

...OBSERVATIONS IN CENTRAL LINCOLN COUNTY AREA...

CITY           SKY/WX    TMP DP  RH WIND       PRES   REMARKS
N.P. AIRPORT   CLOUDY    35  32  88 NE16      29.75F WCI  25
N.P. DOWNTOWN    N/A     34  30  86 NE12G20     N/A  WCI  25
N.P. SOUTHEAST   N/A     34  31  90 NE8G18      N/A  WCI  27
N.P. HILLCREST   N/A     34  32  94 E17         N/A  WCI  23
$$

...SOME OBSERVATIONS FROM AROUND THE REGION...

CITY           SKY/WX    TMP DP  RH WIND       PRES   REMARKS
LARAMIE        CLOUDY    26  20  77 SE24G37   29.50F WCI  11
CHEYENNE       LGT SNOW  28  27  96 E13       29.62F FOG     WCI  17
DENVER         MOCLDY    29  25  85 NE12      29.62F WCI  19
AKRON          FOG       31  30  96 E22       29.61F VSB 3/4 WCI  18
SCOTTSBLUFF    LGT SNOW  30  27  88 E14       29.73F VSB 3/4 WCI  19
RAPID CITY     CLOUDY    29  27  92 NE14      29.85F FOG     WCI  18
BISMARCK       CLOUDY    28  25  88 W3        29.99F
PIERRE         CLOUDY    28  24  85 N7        29.94S WCI  21
SIOUX FALLS    CLOUDY    31  28  89 NE20G26   29.86F WCI  19
OMAHA          CLOUDY    39  34  82 N20       29.80R WCI  29
GRAND ISLAND   CLOUDY    37  35  92 NE17      29.78F WCI  27
KANSAS CITY    CLOUDY    50  41  71 NE13      29.69S
WICHITA        MOCLDY    48  43  82 NE9       29.58F
OKLAHOMA CITY  MOCLDY    55  46  71 S9        29.57F
DALLAS         CLEAR     59  49  69 S9        29.62S
AMARILLO       PTCLDY    48  33  56 S7        29.65F
DODGE CITY     MOCLDY    50  34  54 E14       29.57F
HAYS             N/A     46  35  65 E22       29.59F
GOODLAND       CLEAR     32  27  81 NE8       29.62S WCI  25
$$




USA.gov is the U.S. government's official web portal to all federal, state and local government web resources and services.